Ana Sayfa
METAR-TAF:

METAR-TAF

Havaalanları :

Beaumont, Teksas, Amerika Birleşik Devletleri

Enlem: 30-04-13N, Boylam: 094-12-54W, yükseklik: 10 m

Güncel hava durumu gözlemi

Rapor saat 21:35 UTC de 47 dakika önce yapıldı.
Rüzgar güney/güneydoğudan 8 kt
Sıcaklık 29°C
Nem 74%
Basınç 1015 hPa
Görüş mesafesi: 16.1 km
Açık gökyüzü

METAR: KBMT 212135Z AUTO 16008KT 10SM CLR 29/24 A2998 RMK AO2 T02850235

Saat: 16:22 (22:22 UTC)


TAF: eksik

4.000'den fazla havaalanı için hava durumu gözlemleri ve tahminleri (METAR ve TAF raporları).

Kullanılabilir istasyonlar harita üzerinde sarı ve kırmızı noktalarla gösterilir.

İstasyonun adını görmek için fareyi noktanın üzerinde gezdirin.

Sonrasında hava gözlem ve tahminlerini görmek için tıklayın.

Haritayı değiştirmek için: yaklaştırmak için siyah artı işaretli yeşil düğmeye ve uzaklaştırmak için de eksi işaretli düğmeye hızla tıklayın; bitişik haritalar için yeşil okları kullanın.


METAR-TAF: